Terug naar catalogus

STARLINK-35875

ActiefCommunicatieVLEO
NORAD 67111·PAYLOAD·🇺🇸 United States

Gelanceerd Dec 15, 2025 vanaf Cape Canaveral Space Force Station

Loading…

Volgende Passages (komende 24 uur)

TLE

VersSource: CelesTrak SupGP

Epoch: Sep 14, 2026, 23:25 UTC

1 67111C 25299K   26257.97618056 -.00032310  00000+0 -11704-2 0  2579
2 67111  42.9999 179.8403 0001350 268.1304 213.6443 15.27592414    19

Volg STARLINK-35875 in realtime met AllMySat

Download on the App Store